Skip Page Navigation
NASA JPL Caltech
NASA Logo - Jet Propulsion Laboratory + View the NASA Portal
+ Center for Near-Earth Object Studies
JPL Home Earth Solar System Stars & Galaxies Technology
JPL Solar System Dynamics
BODIES ORBITS EPHEMERIDES TOOLS PHYSICAL DATA DISCOVERY FAQ SITE MAP
JPL Small-Body Database Browser
Search: [ help ]  
266889 (2009 WW46)
Classification: Main-belt Asteroid          SPK-ID: 2266889
Ephemeris | Orbit Diagram | Orbital Elements | Mission Design | Physical Parameters | Discovery Circumstances | Close-Approach Data ]

[ show orbit diagram ]
Orbital Elements at Epoch 2459396.5 (2021-Jul-01.0) TDB
Reference: JPL 23 (heliocentric ecliptic J2000)
 Element Value Uncertainty (1-sigma)   Units 
e .05371955143480873 4.3713e-08  
a 2.982513827884271 3.0112e-08 au
q 2.822294522902214 1.3216e-07 au
i 10.17031078225943 4.8944e-06 deg
node 90.78872821531459 2.4129e-05 deg
peri 166.0211337235044 5.4892e-05 deg
M 247.394140947177 5.3131e-05 deg
tp 2459984.978516868767
(2023-Feb-09.47851687)
0.00028142 TDB
period 1881.36095097305
5.15
2.8492e-05
7.801e-08
d
yr
n .1913508408972802 2.8979e-09 deg/d
Q 3.142733132866329 3.173e-08 au
  Orbit Determination Parameters
   # obs. used (total)      432  
   data-arc span      7390 days (20.23 yr)  
   first obs. used      2001-02-16  
   last obs. used      2021-05-12  
   planetary ephem.      DE441  
   SB-pert. ephem.      SB441-N16  
   condition code      0  
   norm. resid. RMS      .52137  
   source      ORB  
   producer      Otto Matic  
   solution date      2021-Jul-09 04:46:11  

Additional Information
 Earth MOID = 1.80798 au 
 Jupiter MOID = 1.91383 au 
 T_jup = 3.233 
[ show covariance matrix ]

Ephemeris | Orbit Diagram | Orbital Elements | Mission Design | Physical Parameters | Discovery Circumstances | Close-Approach Data ]

Physical Parameter Table
Parameter Symbol Value Units Sigma Reference Notes
absolute magnitude H 15.38   n/a MPCxxxxx  

266889 (2009 WW46)          Discovered 2009-Nov-18 by Mt. Lemmon Survey at Mount Lemmon
Reference: 20110218/Numbers.arcLast Updated: 2011-02-22

[ show close-approach data ]
Alternate Designations
 2009 WW46 = 2006 DJ64 
Ephemeris | Orbit Diagram | Orbital Elements | Mission Design | Physical Parameters | Discovery Circumstances | Close-Approach Data ]
ABOUT SSD CREDITS/AWARDS PRIVACY/COPYRIGHT GLOSSARY LINKS
FirstGov 2021-Jul-25 07:54 UT
(server date/time)  
NASA Home Page
Site Manager:   Ryan S. Park
Webmaster  Alan B. Chamberlin